TimeEDT,TemperatureF,Dew PointF,Humidity,Sea Level PressureIn,VisibilityMPH,Wind Direction,Wind SpeedMPH,Gust SpeedMPH,PrecipitationIn,Events,Conditions,WindDirDegrees,DateUTC
12:53 AM,78.1,71.1,79,30.06,10.0,North,4.6,-,N/A,,Scattered Clouds,10,2013-05-12 04:53:00
1:53 AM,77.0,73.0,88,30.05,10.0,NNE,3.5,-,N/A,,Scattered Clouds,30,2013-05-12 05:53:00
2:53 AM,75.9,73.0,91,30.02,10.0,SSE,3.5,-,N/A,,Clear,150,2013-05-12 06:53:00
3:53 AM,75.9,73.0,91,30.00,10.0,SSE,3.5,-,N/A,,Clear,160,2013-05-12 07:53:00
4:53 AM,75.9,73.0,91,29.99,10.0,Calm,Calm,-,N/A,,Clear,0,2013-05-12 08:53:00
5:53 AM,75.0,73.0,94,29.99,10.0,Calm,Calm,-,N/A,,Clear,0,2013-05-12 09:53:00
6:53 AM,75.0,73.0,94,29.98,10.0,South,4.6,-,N/A,,Partly Cloudy,180,2013-05-12 10:53:00
7:53 AM,78.1,73.0,84,30.01,10.0,South,3.5,-,N/A,,Partly Cloudy,190,2013-05-12 11:53:00
8:53 AM,81.0,72.0,74,30.03,10.0,South,10.4,-,N/A,,Scattered Clouds,170,2013-05-12 12:53:00
9:53 AM,82.9,71.1,67,30.03,10.0,South,11.5,-,N/A,,Scattered Clouds,190,2013-05-12 13:53:00
10:53 AM,84.9,72.0,65,30.03,10.0,South,8.1,-,N/A,,Scattered Clouds,180,2013-05-12 14:53:00
11:53 AM,84.9,70.0,61,30.03,10.0,SSW,9.2,-,N/A,,Mostly Cloudy,210,2013-05-12 15:53:00
12:53 PM,84.9,72.0,65,30.01,10.0,SSE,10.4,-,N/A,,Mostly Cloudy,150,2013-05-12 16:53:00
1:53 PM,84.9,71.1,63,29.99,10.0,SE,12.7,21.9,N/A,,Scattered Clouds,140,2013-05-12 17:53:00
2:53 PM,87.1,71.1,59,29.97,10.0,SE,15.0,-,N/A,,Partly Cloudy,140,2013-05-12 18:53:00
3:53 PM,82.9,70.0,65,29.96,10.0,SSE,17.3,-,N/A,,Scattered Clouds,150,2013-05-12 19:53:00
4:53 PM,82.0,70.0,67,29.96,10.0,South,12.7,-,N/A,,Mostly Cloudy,170,2013-05-12 20:53:00
5:53 PM,82.0,70.0,67,29.98,10.0,SSW,10.4,-,N/A,,Mostly Cloudy,210,2013-05-12 21:53:00
6:09 PM,80.6,71.6,74,29.99,10.0,West,13.8,-,N/A,,Mostly Cloudy,280,2013-05-12 22:09:00
6:53 PM,79.0,71.1,77,30.00,10.0,SW,6.9,-,N/A,,Mostly Cloudy,230,2013-05-12 22:53:00
7:53 PM,78.1,66.0,66,30.03,10.0,NNE,15.0,18.4,N/A,,Overcast,20,2013-05-12 23:53:00
8:02 PM,77.0,66.2,69,30.04,10.0,North,16.1,-,N/A,,Overcast,10,2013-05-13 00:02:00
8:06 PM,75.2,66.2,73,30.04,10.0,North,11.5,-,0.00,Rain,Light Rain,360,2013-05-13 00:06:00
8:10 PM,73.4,69.8,88,30.04,1.0,North,6.9,-,0.05,Rain-Thunderstorm,Thunderstorms and Rain,360,2013-05-13 00:10:00
8:17 PM,73.4,71.6,94,30.03,1.0,Calm,Calm,-,0.27,Rain-Thunderstorm,Thunderstorms and Rain,0,2013-05-13 00:17:00
8:20 PM,73.4,71.6,94,30.03,2.0,South,5.8,-,0.28,Rain-Thunderstorm,Thunderstorms and Rain,180,2013-05-13 00:20:00
8:22 PM,73.4,71.6,94,30.03,4.0,South,5.8,-,0.30,Rain-Thunderstorm,Thunderstorms and Rain,180,2013-05-13 00:22:00
8:26 PM,73.4,71.6,94,30.03,6.0,SSE,4.6,-,0.30,Rain-Thunderstorm,Light Thunderstorms and Rain,160,2013-05-13 00:26:00
8:44 PM,73.4,71.6,94,30.04,10.0,Calm,Calm,-,N/A,,Mostly Cloudy,0,2013-05-13 00:44:00
8:53 PM,75.0,72.0,90,30.04,10.0,ESE,3.5,-,N/A,,Mostly Cloudy,120,2013-05-13 00:53:00
9:53 PM,73.9,72.0,93,30.05,10.0,Calm,Calm,-,N/A,,Mostly Cloudy,0,2013-05-13 01:53:00
10:53 PM,73.9,72.0,93,30.06,10.0,Calm,Calm,-,N/A,,Scattered Clouds,0,2013-05-13 02:53:00
11:53 PM,73.9,73.0,97,30.05,10.0,Calm,Calm,-,N/A,,Clear,0,2013-05-13 03:53:00